Weather in Norfolk

United States     42°01′56″N   97°25′34″W
В апреле 2022 года жителям России запретили посещать сайт meteo.paraplan.net по решению Генеральной прокуратуры. Аудитория сайта уменьшилась в 10 раз. Владельцы сайта не видят смысла в поддержке погодного сервера в таких условиях. Сайт будет закрыт в октябре.
temp.,
°C
wind,
m/s
gust,
m/s
humid.,
%
clouds,
%
prec.,
mm/h
press.,
hPa
HPBL,
m
4 october, tue
tue401:00+19ssw41234100 0.0 1019396
04:00+15sse224494 0.0 101921
07:00+14se2248100 0.0 101832
10:00+18wnw2338100 0.0 1018273
13:00+15sw2480100 1.3 1019184
16:00+17s4878100 2.2 1017425
19:00+15ssw477836 2.6 1016124
22:00+14w4988100 1.6 1019248
5 october, wed
wed501:00+13wsw359418 2.4 1017111
04:00+12w498817 0.0 1017165
07:00+11wnw410886 0.0 1018196
10:00+16nw58685 0.0 1018422
13:00+22nnw68445 0.0 10181393
16:00+24nnw673528 0.0 10162344
19:00+19nnw11466 0.0 101711
22:00+18w224538 0.0 101837
6 october, thu
thu601:00+16nw345119 0.0 101956
04:00+14wnw355587 0.0 101979
07:00+15wnw4855100 0.0 1020148
10:00+16n8105661 0.0 1023671
13:00+18n894224 0.0 10251088
16:00+18n783352 0.0 10251284
19:00+14n6933100 0.0 1027722
22:00+10nne41029100 0.0 1030424
7 october, fri
fri701:00+7nne39395 0.0 1032242
04:00+4ne38555 0.0 1033215
07:00+2nne23753 0.0 103575
10:00+7ne33565 0.0 1035459
13:00+13ne12305 0.0 10321077
16:00+15wnw12235 0.0 10281256
19:00+11sse01295 0.0 102710
22:00+10se223251 0.0 102816
8 october, sat
sat801:00+11s373068 0.0 1027214
04:00+8ssw37375 0.0 1027130
07:00+8sw39545 0.0 1026165
10:00+15wsw58513 0.0 1025440
13:00+21wsw56300 0.0 10221329
16:00+23wsw56293 0.0 10191982
19:00+18w22405 0.0 101911
22:00+15sw23477 0.0 101916